sat.trackr.live / text

‹ back to catalog

STARLINK-33934

NORAD 64187 · 2025-113T

PAYLOAD ACTIVE UNKNOWN

§ Identity

Operator
Country
US
Launch date
2025-05-28
Launch site
AFETR
Launch vehicle
Mass (kg)
RCS (m²)

Purposes: comms

External: N2YO · Heavens-Above · Gunter

§ Orbital elements

Epoch: 2026-09-20T06:16:51.379392Z

Period
93.85 min
Inclination
53.1558°
Eccentricity
0.0001200
Mean motion
15.34401837 rev/d
Perigee alt
461.9 km
Apogee alt
463.5 km
Semi-major
6,840.8 km
B*
5.9339e-4
RAAN
266.7504°
Arg perigee
39.6461°
Mean anomaly
320.4630°
Rev number
7,482

§ Raw data

STARLINK-339341 64187U 25113T   26263.26170578  .00019726  00000+0  59339-3 0  99992 64187  53.1558 266.7504 0001200  39.6461 320.4630 15.34401837 74822

JSON: /api/v1/satellites/64187 · /tle

For live sub-satellite position, see the globe view (requires WebGL).

§ Visibility from observer

Set your observer location to see the next 7 days of passes ≥ 10°. The values pass through the URL so the page stays shareable.

No JS? Fill the form by hand. The geolocation button needs JavaScript.